Skip Page Navigation
NASA JPL Caltech
NASA Logo - Jet Propulsion Laboratory + View the NASA Portal
+ Center for Near-Earth Object Studies
JPL Home Earth Solar System Stars & Galaxies Technology
JPL Solar System Dynamics
BODIES ORBITS EPHEMERIDES TOOLS PHYSICAL DATA DISCOVERY FAQ SITE MAP
JPL Small-Body Database Browser
Search: [ help ]  
100070 (1992 EX29)
Classification: Main-belt Asteroid          SPK-ID: 2100070
Ephemeris | Orbit Diagram | Orbital Elements | Mission Design | Physical Parameters | Discovery Circumstances | Close-Approach Data ]

[ show orbit diagram ]
Orbital Elements at Epoch 2459000.5 (2020-May-31.0) TDB
Reference: JPL 19 (heliocentric ecliptic J2000)
 Element Value Uncertainty (1-sigma)   Units 
e .2273021378755553 3.9399e-08  
a 2.432465254484107 1.1682e-08 au
q 1.879560701831863 9.9662e-08 au
i 9.32163237535304 4.366e-06 deg
node 152.3050167679838 3.1209e-05 deg
peri 293.7809674543618 3.3386e-05 deg
M 218.0087481788692 1.2672e-05 deg
tp 2459547.046959178261
(2021-Nov-28.54695918)
5.0558e-05 TDB
period 1385.69737769502
3.79
9.9827e-06
2.733e-08
d
yr
n .2597969843883424 1.8716e-09 deg/d
Q 2.985369807136351 1.4338e-08 au
  Orbit Determination Parameters
   # obs. used (total)      643  
   data-arc span      10396 days (28.46 yr)  
   first obs. used      1992-02-29  
   last obs. used      2020-08-16  
   planetary ephem.      DE431  
   SB-pert. ephem.      SB431-N16  
   condition code      0  
   norm. resid. RMS      .52774  
   source      ORB  
   producer      Otto Matic  
   solution date      2020-Nov-12 20:08:13  

Additional Information
 Earth MOID = .917973 au 
 Jupiter MOID = 2.28964 au 
 T_jup = 3.453 
[ show covariance matrix ]

Ephemeris | Orbit Diagram | Orbital Elements | Mission Design | Physical Parameters | Discovery Circumstances | Close-Approach Data ]

Physical Parameter Table
Parameter Symbol Value Units Sigma Reference Notes
absolute magnitude H 16.1   n/a MPO436466  

100070 (1992 EX29)          Discovered 1992-Mar-03 by UESAC at La Silla
Reference: 20051019/Numbers.arcLast Updated: 2005-10-26

[ show close-approach data ]
Alternate Designations
 1992 EX29 = 2003 BB29 
Ephemeris | Orbit Diagram | Orbital Elements | Mission Design | Physical Parameters | Discovery Circumstances | Close-Approach Data ]
ABOUT SSD CREDITS/AWARDS PRIVACY/COPYRIGHT GLOSSARY LINKS
FirstGov 2020-Dec-01 13:10 UT
(server date/time)  
NASA Home Page
Site Manager:   Ryan S. Park
Webmaster  Alan B. Chamberlin